Location: Poughquag
(41.6090°N, 73.6820°W)
Time: 13:47:23
(UTC-04:00)

Altair - Pass Details

Date: 29 May 2020
Orbit: 1501 x 1683 km, 47.2° (Epoch: 05 July)

Event Time Altitude Azimuth Distance (km) Brightness Sun altitude
Rises 03:40:51 0° 289° (WNW) 4,927 9.9 -15.6°
Reaches altitude 10° 03:44:03 10° 291° (WNW) 3,945 9.4 -15.2°
Maximum altitude 03:54:15 73° 17° (NNE) 1,740 7.9 -14.0°
Drops below altitude 10° 04:04:19 10° 102° (ESE) 3,895 10.1 -12.6°
Sets 04:07:27 0° 104° (ESE) 4,862 10.6 -12.2°
